Tracking 19831 objects as of 23-Aug-2019
HD Live streaming from Space Station
objects crossing your sky now

ARIANE 44L R/B

Track ARIANE 44L R/B now!
10-day predictions


NORAD ID: 22032
Int'l Code: 1992-041C
Perigee: 176.5 km
Apogee: 15,829.8 km
Inclination: 7.0 °
Period: 285.8 minutes
Semi major axis: 14374 km
RCS: 44.0573 m2 (large)
Launch date: July 9, 1992
Source: France (FR)
Launch site: FRENCH GUIANA (FRGUI)

Note: This is a ROCKET BODY
aabbcc
Your satellite tracking list
Your tracking list is empty




NASA's NSSDC Master Catalog

Two Line Element Set (TLE):
1 22032U 92041C   19234.00114803 +.00118684 +33342-7 +10015-2 0  9990
2 22032 006.9905 144.7486 5444943 229.2710 068.9249 05.03765519356856
Source of the keplerian elements: AFSPC